EUTE 7B (EUTE 3D)

导读

EUTE 7B(又名EUTE 3D)由欧洲通信卫星组织(EUTELSAT)运营,于2013年5月14日发射,属于欧洲通信卫星系列。该卫星定位于东经3°轨位,属于EUTELSAT W系列,主要为覆盖区域提供卫星广播、宽带通信、数据传输等服务,信号覆盖欧洲、部分非洲及中东地区,支持广播电视到户、企业专网连接等多种应用,助力区域卫星通信基础设施的稳定运行,是EUTELSAT全球卫星通信网络的重要组成部分。

基本信息
目录编号:
39163
目录名称:
EUTE 7B (EUTE 3D)
国际标识:
2013-022A
轨道中心:
EARTH
卫星名称:
EUTE 7B (EUTE 3D)
卫星全名:
--
卫星状态:
在轨 (已飞行4780 天)
发射日期:
2013-05-14 UTC
国别 :
(EUTE)
星等 :
--
轨道信息
数据来源 国际轨道数据 AOE轨道数据
星历时间 2026-06-15T03:59:00+0800
6小时前
查看轨道信息
2026-06-15T05:00:00+0800
5小时前
查看轨道信息
半长轴 42164.56km 42164.56km
偏心率 0.00046 0.000464
轨道倾角 0.076° 0.076°
近地点辐角 12.175° 10.809°
升交点赤经 23.907° 24.428°
平近点角 173.795° 189.933°
近地点 35767.027km 35766.858km
远地点 35805.819km 35805.988km
周期 1436.088分钟 1436.088分钟
每日圈数 1.002724 1.002724
详细信息
使用方式:
暂无
2D轨道图
3D轨道图
轨道高度分析图
轨道倾角分析图
轨道综合分析图
查看轨道综合分析图